Weather History for KPIH - August, 2013

Change the Weather History Date:

Monday, August 19, 2013

  Actual Average Record
Temperature  
Mean Temperature 75 °F 69 °F  
Max Temperature 95 °F 87 °F 99 °F (1992)
Min Temperature 54 °F 50 °F 35 °F (1995)
Degree Days  
Heating Degree Days 0 1  
Month to date heating degree days 0 6  
Since 1 June heating degree days 90 157  
Since 1 July heating degree days 0 26  
Cooling Degree Days 10 4  
Month to date cooling degree days 142 106  
Year to date cooling degree days 536 329  
Since 1 June cooling degree days 527 324  
Growing Degree Days 24 (Base 50)    
Moisture  
Dew Point 38 °F    
Average Humidity 28    
Maximum Humidity 42    
Minimum Humidity 13    
Precipitation  
Precipitation 0.00 in 0.02 in 0.25 in (1968)
Month to date precipitation 0.01 0.35  
Year to date precipitation 3.83 7.81  
Snow  
Snow 0.00 in - - ()
Month to date snowfall 0.0  
Since 1 June snowfall 0.0  
Since 1 July snowfall 0.0  
Snow Depth 0.00 in    
Sea Level Pressure  
Sea Level Pressure 29.93 in    
Wind  
Wind Speed 10 mph (WSW)    
Max Wind Speed 17 mph    
Max Gust Speed 21 mph    
Visibility 10 miles    
Events      
T = Trace of Precipitation, MM = Missing Value Source: NWS Daily Summary

Daily Weather History Graph

Daily Weather History Graph

Search for Another Location

Airport or City:

Trip Planner

Search our weather history database for the weather conditions in past years. The results will help you decide how hot, cold, wet, or windy it might be!

Date:

Astronomy

Aug. 19, 2013 Rise Set
Actual Time 6:41 AM MDT 8:25 PM MDT
Civil Twilight 6:10 AM MDT 8:55 PM MDT
Nautical Twilight 5:34 AM MDT 9:32 PM MDT
Astronomical Twilight 4:54 AM MDT 10:11 PM MDT
Moon 7:19 PM MDT (8/19) 5:03 AM MDT (8/19)
Length of Visible Light 14h 45m
Length of Day
13h 44m
Waxing Gibbous, 97% of the Moon is Illuminated
Aug 19
Waxing Gibbous
Aug 20
Full
Aug 28
Last Quarter
Sep 5
New
Sep 12
First Quarter

Hourly Weather History & Observations

Time (MDT) Temp. Dew Point Humidity Pressure Visibility Wind Dir Wind Speed Gust Speed Precip Events Conditions
12:53 AM 78.1 °F 34.0 °F 20% 29.92 in 10.0 mi SSW 10.4 mph - N/A   Clear
1:53 AM 77.0 °F 35.1 °F 22% 29.91 in 10.0 mi SSW 11.5 mph - N/A   Clear
2:53 AM 75.0 °F 35.1 °F 23% 29.93 in 10.0 mi SW 12.7 mph - N/A   Clear
3:53 AM 68.0 °F 35.1 °F 30% 29.94 in 10.0 mi SSW 9.2 mph - N/A   Clear
4:53 AM 66.9 °F 34.0 °F 30% 29.94 in 10.0 mi SSW 9.2 mph - N/A   Clear
5:53 AM 61.0 °F 37.0 °F 41% 29.97 in 10.0 mi SW 5.8 mph - N/A   Clear
6:53 AM 60.1 °F 37.0 °F 42% 29.98 in 10.0 mi SSW 9.2 mph - N/A   Clear
7:53 AM 68.0 °F 37.9 °F 33% 29.99 in 10.0 mi SW 3.5 mph - N/A   Clear
8:53 AM 73.0 °F 41.0 °F 31% 30.01 in 10.0 mi Calm Calm - N/A   Clear
9:53 AM 78.1 °F 42.1 °F 28% 30.00 in 10.0 mi West 5.8 mph - N/A   Clear
10:53 AM 82.0 °F 42.1 °F 24% 30.00 in 10.0 mi West 10.4 mph - N/A   Clear
11:53 AM 86.0 °F 39.9 °F 20% 29.97 in 10.0 mi WSW 9.2 mph - N/A   Clear
12:53 PM 90.0 °F 36.0 °F 15% 29.96 in 10.0 mi West 12.7 mph - N/A   Clear
1:53 PM 91.9 °F 35.1 °F 13% 29.94 in 10.0 mi WNW 12.7 mph - N/A   Clear
2:53 PM 93.9 °F 35.1 °F 13% 29.92 in 10.0 mi WSW 13.8 mph 18.4 mph N/A   Clear
3:53 PM 93.0 °F 37.0 °F 14% 29.90 in 10.0 mi West 12.7 mph - N/A   Clear
4:53 PM 93.0 °F 37.0 °F 14% 29.89 in 10.0 mi West 12.7 mph - N/A   Clear
5:53 PM 93.9 °F 35.1 °F 13% 29.87 in 10.0 mi West 16.1 mph - N/A   Clear
6:53 PM 91.9 °F 39.0 °F 16% 29.88 in 10.0 mi West 12.7 mph - N/A   Clear
7:53 PM 84.9 °F 42.1 °F 22% 29.87 in 10.0 mi WSW 12.7 mph - N/A   Clear
8:53 PM 81.0 °F 43.0 °F 26% 29.88 in 10.0 mi SSW 10.4 mph - N/A   Clear
9:53 PM 82.0 °F 39.9 °F 22% 29.87 in 10.0 mi SW 9.2 mph - N/A   Clear
10:53 PM 81.0 °F 41.0 °F 24% 29.85 in 10.0 mi Calm Calm - N/A   Clear
11:53 PM 82.0 °F 39.9 °F 22% 29.86 in 10.0 mi SSW 5.8 mph - N/A   Mostly Cloudy